Flag for U.S.A. Weather past 2 weeks in Santa Barbara, California, U.S.A.

Now
58 °F

Clear.


Feels Like: 58 °F
Forecast: 49 / 68 °F
Wind: 3 mph from North

Location: Santa Barbara Municipal Airport

Current Time: Apr 1, 2015 at 11:36:59 PM

Latest Report: Apr 1, 2015 at 10:53 PM


Visibility: 10 mi

Pressure: 29.92 "Hg

Humidity: 44%

Dew point: 36 °F

Location of Santa BarbaraLocation

Historic Weather in Santa Barbara — Graph

°F

Santa Barbara temperature yesterday

Maximum temperature yesterday: 68 °F (at 7:53 PM)
Minimum temperature yesterday: 54 °F (at 2:53 AM)
Average temperature yesterday: 60 °F

Past Weeks' High & Low Weather Summary

 TemperatureHumidityPressure
High86 °F (Mar 26, 1:53 PM)100% (Mar 29, 4:53 AM)30.19 "Hg (Mar 29, 4:53 AM)
Low51 °F (Mar 26, 4:53 AM)16% (Mar 26, 1:53 PM)29.87 "Hg (Apr 1, 5:53 PM)
Average63 °F71%30.03 "Hg
* Reported Mar 17 9:53 PM — Apr 1 9:53 PM, Santa Barbara, Weather by CustomWeather, © 2015

Note: Actual official high and low records may vary slightly from our data, if they occured in-between our weather recording intervals... More about our weather records

Advertising

Santa Barbara weather history for previous 24 hours

 ConditionsComfort  
Time TempWeatherWind HumidityBarometerVisibility
9:53 PM
Wed, Apr 1
60 °FClear.14 mph41%29.91 "Hg10 mi
8:53 PM63 °FClear.14 mph34%29.91 "Hg10 mi
7:53 PM67 °FSunny.13 mph26%29.88 "Hg10 mi
6:53 PM70 °FSunny.17 mph23%29.88 "Hg10 mi
5:53 PM75 °FSunny.5 mph25%29.87 "Hg10 mi
4:53 PM75 °FSunny.10 mph31%29.88 "Hg10 mi
3:53 PM72 °FSunny.10 mph41%29.90 "Hg10 mi
2:53 PM74 °FSunny.8 mph41%29.91 "Hg10 mi
1:53 PM73 °FSunny.10 mph44%29.93 "Hg10 mi
12:53 PM72 °FSunny.13 mph46%29.96 "Hg10 mi
11:53 AM71 °FSunny.7 mph42%29.99 "Hg10 mi
10:53 AM67 °FSunny.3 mph61%30.01 "Hg10 mi
9:53 AM63 °FSunny.8 mph78%30.01 "Hg8 mi
8:53 AM63 °FScattered clouds.6 mph75%29.99 "Hg9 mi
7:53 AM57 °FSunny.No wind64%29.98 "Hg10 mi
6:53 AM53 °FClear.3 mph59%29.98 "Hg10 mi
5:53 AM56 °FClear.No wind58%29.93 "Hg10 mi
4:53 AM58 °FClear.5 mph47%29.93 "Hg10 mi
3:53 AM61 °FClear.No wind39%29.95 "Hg10 mi
2:53 AM64 °FClear.9 mph35%29.96 "Hg10 mi
1:53 AM62 °FClear.8 mph41%29.97 "Hg10 mi
12:53 AM66 °FClear.12 mph36%29.96 "Hg10 mi
11:53 PM
Tue, Mar 31
65 °FClear.15 mph39%29.97 "Hg10 mi
Weather by CustomWeather, © 2015

See weather overviewHow to use our weather pages